EW3708 Weather Reports


Display with metric or nautical units.
time (UTC)temp
F
wind
direction
speed
MPH
gust
MPH
rain 1hr
in
rain 24hr
in
rain mn
in
humidity
%
barometer
mb
20260904213034 74 251 0.0 3.0 0.00 0.21 0.03 73 1010.6
20260904211529 74 214 0.0 3.0 0.00 0.21 0.03 71 1010.1
20260904210035 74 209 0.0 2.0 0.00 0.21 0.03 75 1010.1
20260904204527 75 282 0.0 0.0 0.00 0.21 0.03 72 1010.1
20260904203035 75 282 0.0 3.0 0.00 0.21 0.03 72 1010.2
20260904201526 76 282 1.0 5.0 0.00 0.21 0.03 69 1010.3
20260904200034 76 188 1.0 3.0 0.00 0.21 0.03 69 1010.6
20260904194543 76 226 1.0 4.0 0.00 0.21 0.03 66 1010.9
20260904193023 77 304 1.0 4.0 0.00 0.21 0.03 68 1010.9
20260904191535 77 302 1.0 4.0 0.00 0.21 0.03 67 1010.9
20260904190021 78 310 2.0 4.0 0.00 0.21 0.03 65 1011.0
20260904184519 77 310 1.0 4.0 0.00 0.21 0.03 67 1011.1
20260904183016 77 261 1.0 4.0 0.00 0.21 0.03 70 1011.4
20260904181515 76 269 1.0 3.0 0.00 0.21 0.03 73 1011.4
20260904180013 76 286 2.0 4.0 0.00 0.21 0.03 71 1011.4
20260904174521 76 319 1.0 3.0 0.00 0.21 0.03 68 1011.4
20260904173012 76 167 1.0 3.0 0.00 0.21 0.03 73 1011.4
20260904171511 74 289 0.0 4.0 0.00 0.21 0.03 72 1011.4
20260904170010 76 329 2.0 4.0 0.00 0.21 0.03 73 1011.5
20260904164508 75 306 1.0 3.0 0.00 0.21 0.03 76 1011.5
20260904163007 74 360 1.0 3.0 0.00 0.21 0.03 75 1011.6
20260904161506 75 273 1.0 3.0 0.00 0.21 0.03 77 1011.6
20260904160007 75 319 1.0 4.0 0.00 0.21 0.03 75 1011.7
20260904154503 74 295 2.0 4.0 0.00 0.21 0.03 76 1011.7
20260904153115 72 310 1.0 4.0 0.00 0.21 0.03 83 1011.7
20260904151600 71 292 2.0 5.0 0.00 0.21 0.03 84 1011.6
20260904150054 71 301 0.0 4.0 0.00 0.21 0.03 87 1011.9
20260904144513 70 300 0.0 3.0 0.00 0.21 0.03 91 1011.8
20260904143041 69 304 1.0 3.0 0.00 0.21 0.03 91 1011.9
20260904141538 68 310 1.0 5.0 0.00 0.21 0.03 92 1011.9
20260904140042 68 296 1.0 4.0 0.00 0.21 0.03 94 1011.8
20260904134544 68 240 0.0 2.0 0.00 0.21 0.03 95 1011.6
20260904133037 68 237 1.0 3.0 0.00 0.21 0.03 94 1011.5
20260904131536 68 236 0.0 2.0 0.00 0.21 0.03 95 1011.3
20260904130036 69 226 1.0 3.0 0.00 0.21 0.03 95 1011.6
20260904124540 68 226 0.0 2.0 0.00 0.21 0.03 95 1011.8
20260904123043 68 157 0.0 2.0 0.00 0.21 0.03 95 1011.7
20260904121533 68 131 0.0 2.0 0.00 0.21 0.03 95 1011.8
20260904120031 68 131 0.0 1.0 0.00 0.21 0.03 95 1011.8
20260904114530 68 131 0.0 2.0 0.00 0.21 0.03 95 1011.9
20260904113029 68 88 0.0 1.0 0.00 0.21 0.03 95 1011.7
20260904111528 68 88 0.0 1.0 0.00 0.21 0.03 95 1011.2
20260904110037 68 88 0.0 1.0 0.00 0.21 0.03 95 1011.3
20260904104527 68 88 0.0 1.0 0.00 0.22 0.03 95 1011.0
20260904103026 68 88 0.0 1.0 0.00 0.22 0.03 95 1011.0
20260904101525 68 88 0.0 0.0 0.00 0.22 0.03 95 1011.0
20260904100025 68 88 0.0 2.0 0.00 0.22 0.03 95 1011.0
20260904094523 68 88 0.0 2.0 0.00 0.22 0.03 95 1011.0
20260904093023 68 88 0.0 2.0 0.00 0.22 0.03 95 1011.0
20260904091622 68 88 0.0 1.0 0.00 0.22 0.03 95 1010.9
20260904090023 68 88 0.0 0.0 0.00 0.22 0.03 95 1011.0
20260904084523 68 88 0.0 1.0 0.00 0.22 0.03 95 1011.0
20260904083023 68 88 0.0 1.0 0.00 0.22 0.03 95 1011.0
20260904081520 67 88 0.0 1.0 0.00 0.22 0.03 94 1010.9
20260904080019 68 88 0.0 1.0 0.00 0.22 0.03 95 1010.9
20260904074518 67 88 0.0 1.0 0.00 0.31 0.03 95 1010.8
20260904073020 67 88 0.0 1.0 0.00 0.31 0.03 94 1010.6
20260904071517 67 88 0.0 0.0 0.00 0.31 0.03 94 1010.2
20260904070035 67 88 0.0 0.0 0.00 0.31 0.03 94 1010.1
20260904064516 67 88 0.0 1.0 0.00 0.36 0.03 94 1010.2
20260904063016 68 88 0.0 0.0 0.00 0.36 0.03 94 1010.2
20260904061513 68 88 0.0 1.0 0.00 0.36 0.03 95 1010.5
20260904060012 68 88 0.0 0.0 0.00 0.36 0.03 94 1010.5
20260904054522 68 88 0.0 0.0 0.00 0.41 0.03 94 1010.6
20260904053009 68 88 0.0 1.0 0.01 0.41 0.03 94 1010.6
20260904051510 68 88 0.0 1.0 0.01 0.41 0.03 94 1010.9
20260904050014 68 88 0.0 1.0 0.01 0.41 0.03 94 1010.9
20260904044505 68 88 0.0 1.0 0.06 0.51 0.03 94 1011.1
20260904043011 68 88 0.0 1.0 0.05 0.50 0.02 94 1011.2
20260904041503 68 88 0.0 1.0 0.05 0.50 0.02 94 1011.5
20260904040001 68 88 0.0 2.0 0.05 0.50 0.02 93 1011.5
20260904034601 68 88 0.0 1.0 0.00 0.75 0.45 93 1011.6
20260904033100 68 88 0.0 0.0 0.00 0.75 0.45 93 1011.9
20260904031559 68 88 0.0 0.0 0.00 0.75 0.45 93 1012.0
20260904024600 68 88 0.0 1.0 0.00 0.78 0.45 92 1011.6
20260904023102 69 88 0.0 1.0 0.09 0.78 0.45 92 1011.6
20260904021600 69 88 0.0 2.0 0.15 0.78 0.45 92 1011.5
20260904020058 69 88 0.0 0.0 0.15 0.78 0.45 92 1012.4
20260904014558 70 88 1.0 3.0 0.15 0.78 0.45 91 1012.2
20260904013055 72 260 2.0 4.0 0.05 0.68 0.35 92 1013.4
20260904011609 72 114 0.0 1.0 0.00 0.63 0.30 91 1012.4
20260904010105 72 114 0.0 2.0 0.00 0.63 0.30 90 1012.5
20260904004556 72 114 0.0 1.0 0.00 0.63 0.30 89 1012.4
20260904003051 73 114 0.0 1.0 0.00 0.63 0.30 89 1012.4
20260904001551 73 114 0.0 1.0 0.00 0.63 0.30 88 1012.4
20260904000058 74 114 0.0 2.0 0.00 0.63 0.30 87 1012.0
20260903234550 74 114 0.0 1.0 0.00 0.63 0.30 86 1011.9
20260903233049 75 114 0.0 0.0 0.00 0.63 0.30 86 1011.9
20260903231553 76 114 0.0 1.0 0.00 0.63 0.30 84 1011.9
20260903230050 76 114 0.0 1.0 0.00 0.63 0.30 82 1012.4
20260903224548 77 114 0.0 0.0 0.00 0.63 0.30 81 1011.9
20260903223044 77 114 0.0 1.0 0.00 0.63 0.30 79 1011.7
20260903221543 78 114 0.0 2.0 0.00 0.63 0.30 79 1011.6
20260903220041 78 154 0.0 2.0 0.00 0.63 0.30 79 1012.0
20260903214543 78 154 0.0 2.0 0.00 0.63 0.30 77 1011.9